"Pseudo-MPEC" for P12oAir

Created 2026 Jul 26 18:35:09 UT using Find_Orb

Click here for an explanation of pseudo-MPECs

 
 Astrometry: 
     P12oAir*0C2026 07 23.45630021 26 33.669+07 21 16.65   ~7NF5 22.35wXNEOCPF51
     P12oAir 0C2026 07 23.46837421 26 32.858+07 21 19.57   ~7NF5 22.32wXNEOCPF51
     P12oAir 0C2026 07 23.49336021 26 31.222+07 21 25.54   ~7NF5 22.40wXNEOCPF51
     P12oAir 0C2026 07 23.59593621 26 24.457+07 21 49.69   ~7O15 22.55GVNEOCPF51
     P12oAir 0C2026 07 23.59658321 26 24.419+07 21 49.81   ~7O15 22.17GVNEOCPF51
     P12oAir 1C2026 07 24.42453121 25 31.710+07 24 59.64   ~7OHK 22.94GVNEOCPT12
     P12oAir 1C2026 07 24.42677121 25 31.585+07 25 00.19   ~7OHK 22.97GVNEOCPT12
     P12oAir 1C2026 07 24.42900821 25 31.414+07 25 00.76   ~7OHK 22.91GVNEOCPT12

Station data:
(F51) Pan-STARRS 1, Haleakala  (N20.707234 W156.255910)  US/Hawaii.
   Observers J. Herman, T. Lowe, P. Minguez, A. Schultz, I. Smith. Measurers
   K. Chambers, T. de Boer, J. Fairlamb, H. Gao, M. Huber, C.-C. Lin, E.
   Magnier, Y. Ramanjooloo, R. Wainscoat, R. Weryk. 1.8-m Ritchey-Chrétien +
   CCD.
(T12) Mauna Kea-UH/Tholen NEO Follow-Up (2.24-m)  (N19.822991 W155.469434)
   US/Hawaii.  Observer R. Weryk. 2.24-m f/10.1 University of Hawaii
   reflector.

Orbital elements:  P12oAir
   Perihelion 2025 Nov 8.471136 +/- 278 TT = 11:18:26.1 (JD 2460987.971136)
Epoch 2026 Jul 24.0 TT = JDT 2461245.5   Earth MOID: 0.6615      AutoNEOCP
M  69.046939161 +/- 90              (J2000 ecliptic)
n   0.268113399 +/- 0.103           Peri.  298.038642 +/- 41
a   2.381900978 +/- 0.613           Node   271.250237 +/- 10
e   0.33198728 +/- 0.141            Incl.   18.091218 +/- 3.1
P   3.67609                H 19.27  G  0.15   U 11.3  SR
q 1.591140150 +/- 0.142    Q 3.172661806 +/- 1.74
From 8 observations 2026 July 23-24 (23.3 hr); mean residual 0".09
Residuals in arcseconds: 
260723 F51  .02+  .01-    260723 F51  .05+  .00     260724 T12  .23+  .01-    
260723 F51  .19-  .02+    260723 F51  .11+  .03-    260724 T12  .10-  .06+    
260723 F51  .03+  .03+    260724 T12  .14-  .06-    

Ephemerides (geocentric):
Date (UTC) HH   RA             Dec           delta  r     elong  mag " sig PA
---- --------  ------------   ------------  ------ ------ -----  --- --------
2026 07 26 19  21 22 56.871   +07 32 57.43  1.4348 2.3655 149.3 22.7 21.7  91
2026 07 26 20  21 22 54.113   +07 33 04.94  1.4348 2.3656 149.3 22.7 22.4  91
2026 07 26 21  21 22 51.353   +07 33 12.42  1.4348 2.3658 149.3 22.7 23.0  91
2026 07 26 22  21 22 48.592   +07 33 19.87  1.4348 2.3660 149.4 22.7 23.7  91
2026 07 26 23  21 22 45.830   +07 33 27.29  1.4348 2.3661 149.4 22.7 24.4  91
2026 07 27 00  21 22 43.067   +07 33 34.68  1.4348 2.3663 149.4 22.7 25.1  91
2026 07 27 01  21 22 40.303   +07 33 42.03  1.4348 2.3664 149.5 22.7 25.8  91
2026 07 27 02  21 22 37.537   +07 33 49.36  1.4348 2.3666 149.5 22.7 26.5  91
2026 07 27 03  21 22 34.771   +07 33 56.66  1.4347 2.3667 149.5 22.7 27.2  91
2026 07 27 04  21 22 32.003   +07 34 03.92  1.4347 2.3669 149.6 22.7 28.0  91
2026 07 27 05  21 22 29.235   +07 34 11.16  1.4347 2.3670 149.6 22.7 28.7  91
2026 07 27 06  21 22 26.465   +07 34 18.37  1.4347 2.3672 149.6 22.7 29.4  91
2026 07 27 07  21 22 23.694   +07 34 25.54  1.4347 2.3674 149.7 22.7 30.2  91
2026 07 27 08  21 22 20.922   +07 34 32.69  1.4347 2.3675 149.7 22.7 31.0  91
2026 07 27 09  21 22 18.149   +07 34 39.80  1.4347 2.3677 149.7 22.7 31.8  91
2026 07 27 10  21 22 15.375   +07 34 46.88  1.4347 2.3678 149.7 22.7 32.5  91
2026 07 27 11  21 22 12.600   +07 34 53.94  1.4347 2.3680 149.8 22.7 33.3  91
2026 07 27 12  21 22 09.824   +07 35 00.96  1.4347 2.3681 149.8 22.7 34.2  91
2026 07 27 13  21 22 07.047   +07 35 07.96  1.4347 2.3683 149.8 22.7 35.0  91
2026 07 27 14  21 22 04.269   +07 35 14.92  1.4347 2.3684 149.9 22.7 35.8  91
2026 07 27 15  21 22 01.490   +07 35 21.85  1.4347 2.3686 149.9 22.7 36.6  91
2026 07 27 16  21 21 58.709   +07 35 28.75  1.4347 2.3687 149.9 22.7 37.5  91
2026 07 27 17  21 21 55.928   +07 35 35.62  1.4347 2.3689 150.0 22.7 38.3  91
2026 07 27 18  21 21 53.146   +07 35 42.47  1.4347 2.3691 150.0 22.7 39.2  91
2026 07 27 19  21 21 50.362   +07 35 49.28  1.4347 2.3692 150.0 22.7 40.1  91
2026 07 27 20  21 21 47.578   +07 35 56.06  1.4347 2.3694 150.0 22.7 41.0  91
2026 07 27 21  21 21 44.793   +07 36 02.81  1.4347 2.3695 150.1 22.7 41.9  91
2026 07 27 22  21 21 42.006   +07 36 09.53  1.4347 2.3697 150.1 22.7 42.8  91
2026 07 27 23  21 21 39.219   +07 36 16.22  1.4347 2.3698 150.1 22.7 43.7  91
2026 07 28 00  21 21 36.431   +07 36 22.88  1.4347 2.3700 150.2 22.7 44.6  91
2026 07 28 01  21 21 33.641   +07 36 29.50  1.4347 2.3701 150.2 22.7 45.6  91
2026 07 28 02  21 21 30.851   +07 36 36.10  1.4347 2.3703 150.2 22.7 46.5  91
2026 07 28 03  21 21 28.060   +07 36 42.67  1.4347 2.3705 150.3 22.7 47.5  91
2026 07 28 04  21 21 25.267   +07 36 49.21  1.4347 2.3706 150.3 22.7 48.4  91
2026 07 28 05  21 21 22.474   +07 36 55.72  1.4347 2.3708 150.3 22.7 49.4  91
2026 07 28 06  21 21 19.680   +07 37 02.19  1.4347 2.3709 150.3 22.7 50.4  91
2026 07 28 07  21 21 16.885   +07 37 08.64  1.4347 2.3711 150.4 22.7 51.4  91
2026 07 28 08  21 21 14.089   +07 37 15.05  1.4347 2.3712 150.4 22.7 52.4  91
2026 07 28 09  21 21 11.292   +07 37 21.44  1.4347 2.3714 150.4 22.7 53.4  91
2026 07 28 10  21 21 08.494   +07 37 27.80  1.4347 2.3715 150.5 22.7 54.4  91
2026 07 28 11  21 21 05.695   +07 37 34.12  1.4347 2.3717 150.5 22.7 55.4  91
2026 07 28 12  21 21 02.895   +07 37 40.42  1.4347 2.3718 150.5 22.7 56.5  91
2026 07 28 13  21 21 00.094   +07 37 46.68  1.4347 2.3720 150.6 22.7 57.5  91
2026 07 28 14  21 20 57.292   +07 37 52.91  1.4347 2.3722 150.6 22.7 58.6  91
2026 07 28 15  21 20 54.489   +07 37 59.12  1.4347 2.3723 150.6 22.7 59.7  91
2026 07 28 16  21 20 51.686   +07 38 05.29  1.4347 2.3725 150.6 22.7 60.7  91
2026 07 28 17  21 20 48.881   +07 38 11.43  1.4347 2.3726 150.7 22.7 61.8  92
2026 07 28 18  21 20 46.076   +07 38 17.55  1.4347 2.3728 150.7 22.7 62.9  92